Regional Weather Roundup
Issued by NWS

Home | Current Version | Previous Version | Text Only | Print | Product List | Glossary Off
Versions: 1 2 3 4 5 6 7 8 9 10 11 12 13 14 15 16 17 18 19 20 21 22 23 24 25 26 27 28 29 30 31 32 33 34 35 36 37 38 39 40 41 42 43 44 45 46 47 48 49 50

000
ASUS43 KDTX 261310
RWRMI
MICHIGAN HOURLY REGIONAL WEATHER ROUNDUP
NATIONAL WEATHER SERVICE DETROIT/PONTIAC MI
900 AM EDT SAT MAY 26 2018

NOTE: "FAIR" INDICATES FEW OR NO CLOUDS BELOW 12,000 FEET WITH NO
SIGNIFICANT WEATHER AND/OR OBSTRUCTION TO VISIBILITY.

MIZ047>049-052>055-059>063-066>070-074>076-081>083-261400-
SOUTHEAST LOWER MICHIGAN

CITY           SKY/WX    TMP DP  RH WIND       PRES   REMARKS
ADRIAN         CLOUDY    67  61  81 NE3       29.82F
ALMA           FAIR      70  64  83 S9        29.79S
ANN ARBOR      CLOUDY    66  62  87 CALM      29.82R
BAD AXE        FAIR      73  62  68 S5        29.79R
CARO           LGT RAIN  67  60  76 S3        29.79R
DETROIT CITY   PTSUNNY   72  56  57 W6        29.81R
DETROIT        CLOUDY    70  57  63 SW7       29.82R
FLINT          PTSUNNY   70  59  68 CALM      29.80S
GROSSE ILE     LGT RAIN  68  60  76 CALM      29.81R
HILLSDALE      CLOUDY    68  61  77 S3        29.83S
HOWELL         CLOUDY    69  60  73 S3        29.81S

CITY           SKY/WX    TMP DP  RH WIND       PRES   REMARKS
JACKSON        PTSUNNY   70  62  76 SW6       29.82R
LAMBERTVILLE   CLOUDY    69  61  76 CALM      29.83R
LANSING        CLOUDY    71  63  75 SW6       29.80S
LAPEER         FAIR      71  56  59 W6        29.81R
MASON          CLOUDY    69  62  78 CALM      29.81R
MONROE         LGT RAIN  68  63  82 W8        29.82R
MT. CLEMENS    CLOUDY    72  62  71 W3        29.78R
PONTIAC        CLOUDY    71  59  65 W7        29.80R
PORT HOPE        N/A     61  55  81 CALM      29.77R
PORT HURON     FAIR      68  57  68 CALM      29.80R
TRI CITIES     FAIR      71  62  73 SW5       29.79R
MIDLAND        FAIR      73  63  71 SW3       29.78R
TROY           CLOUDY    73  57  57 SW5       29.82S
SAGINAW HB     FAIR      70  59  68 SW7       29.79R
$$
MIZ043>046-050>051-056>058-064>065-071>073-077>080-261400-
SOUTHWEST LOWER MICHIGAN

CITY           SKY/WX    TMP DP  RH WIND       PRES   REMARKS
BATTLE CREEK   CLOUDY    70  66  87 S7        29.81S
BENTON HARBOR  FAIR      72  67  84 S7        29.79R
BIG RAPIDS     FAIR      72  62  71 SW8       29.77R
COLDWATER      CLOUDY    71  61  71 SW5       29.82S
FREMONT        FAIR      72  65  80 SW9       29.77S
HOLLAND        FAIR      73  66  78 SW10      29.78R
GRAND RAPIDS   PTSUNNY   73  67  81 SW9       29.77F
IONIA          PTSUNNY   69  64  84 S3        29.78F
KALAMAZOO      FAIR      71  66  84 S8        29.80S
LUDINGTON      PTSUNNY   67  64  90 SW9       29.75S
MARSHALL       CLOUDY    69  64  85 S5        29.81S
MOUNT PLEASANT FAIR      73  64  71 SW5       29.77R
MUSKEGON       PTSUNNY   74  64  71 SW15G22   29.77R
SOUTH HAVEN    FAIR      73  67  82 SW9       29.78S
$$
MIZ016>042-261400-
NORTHERN LOWER MICHIGAN

CITY           SKY/WX    TMP DP  RH WIND       PRES   REMARKS
ALPENA         FAIR      67  61  81 E10       29.78R
BEAVER ISLAND  PTSUNNY   69  57  65 S3        29.75S
BELLAIRE       FAIR      71  59  66 CALM      29.76R
CADILLAC       FAIR      69  62  76 SW6       29.78R
CHARLEVOIX     FAIR      68  58  68 SE6       29.78R
FRANKFORT      FAIR      71  64  76 SW6       29.74S
GAYLORD        FAIR      69  58  67 SE7       29.79R
GRAYLING       FAIR      72  57  60 SE5       29.78R
HARBOR SPRINGS PTSUNNY   67  61  80 E6        29.76S
HOUGHTON LAKE  FAIR      70  59  68 E5        29.79R
MANISTEE       FAIR      68  63  84 S3        29.75R
OSCODA         FAIR      65  56  74 E5        29.79R
PELLSTON       FAIR      69  61  75 SE7       29.77R
ROGERS CITY    FAIR      69  62  77 S7        29.77S
TRAVERSE CITY  PTSUNNY   74  60  61 CALM      29.73R
$$
MIZ007>008-015-261400-
EASTERN UPPER MICHIGAN

CITY           SKY/WX    TMP DP  RH WIND       PRES   REMARKS
KINROSS        PTSUNNY   65  62  90 S7        29.77R
MACKINAC ISLAN CLOUDY    65  61  86 SE8       29.76R FOG
NEWBERRY       FAIR      65  62  88 SE6       29.75R
S. S. MARIE    FAIR      65  62  90 E5        29.76R
MUNISING         N/A     71  65  81 VRB6      29.69R
$$
MIZ004>006-011>014-085-261400-
CENTRAL UPPER MICHIGAN

CITY           SKY/WX    TMP DP  RH WIND       PRES   REMARKS
MANISTIQUE     FAIR      61  60  94 E10       29.74R
ESCANABA       FAIR      68  62  81 W8        29.72R
MENOMINEE      FAIR      67  61  81 MISG      29.73R
SAWYER-GWINN   MOSUNNY   66  61  82 SW5       29.72S
$$
MIZ001>003-009>011-084-261400-
WESTERN UPPER MICHIGAN

CITY           SKY/WX    TMP DP  RH WIND       PRES   REMARKS
IRON MOUNTAIN  FAIR      66  63  90 CALM      29.72R
HOUGHTON       FAIR      70  59  68 CALM      29.67F
COPPER HARBOR    N/A     43  41  93 NE7       29.69R
IRONWOOD       PTSUNNY   67  60  78 S5        29.72R
$$

ABBREVIATIONS USED IN REMARKS
   TC - TEMPERATURE IN CELSIUS
  WCI - WIND CHILL INDEX
   HX - HEAT INDEX
  VSB - VISIBILITY





USA.gov is the U.S. government's official web portal to all federal, state and local government web resources and services.